STARLINK-32227 (60361 NORAD) Tracking and Keplerian Element Data

This shows tracking and keplerian element data for the satellite.

Feedback or suggestion? Click here.




ElementValue
Catalog60361
NameSTARLINK-32227
Epoch Orbit1194
Epoch Day286.1868023
Epoch Year2024
RAAN180.0495
Inclination53.1595
Eccentricity7.92E-05
Argument of Perigee84.1585
Mean Anonmoly275.951
Mean Motion15.3961885
Decay Rate-0.00014561
L11 60361U 24138G 24286.18680230 -.00014561 00000+0 -35476-3 0 9990
L22 60361 53.1595 180.0495 0000792 84.1585 275.9510 15.39618850 11942



Live tracking and technical data element details for STARLINK-32227 (NORAD 60361). STARLINK-32227 can be tracked NOW for your location showing map with azimuth and elevation plus other details from your city location.







IsCatalogInMostPopularTable: catalog: 60361, numindb: 8
Update: records affected: 1



GetName: 60361 STARLINK-32227

Hit Count: updated at: Wed, 04 Dec 2024 19:09:56 GMT